Year,Month,Day,Hour,Minute,Value (Times are PST for temperature in C)
2017,04,17,07,49,10.50
2017,04,17,07,50,10.60
2017,04,17,07,51,10.60
2017,04,17,07,52,10.70
2017,04,17,07,53,10.70
2017,04,17,07,54,10.80
2017,04,17,07,55,10.80
2017,04,17,07,56,10.80
2017,04,17,07,57,10.90
2017,04,17,07,58,10.90
2017,04,17,07,59,10.90
2017,04,17,08,00,10.90
2017,04,17,08,01,10.90
2017,04,17,08,02,11.00
2017,04,17,08,03,11.00
2017,04,17,08,04,11.00
2017,04,17,08,05,11.00
2017,04,17,08,06,11.10
2017,04,17,08,07,11.10
2017,04,17,08,08,11.10
2017,04,17,08,09,11.10
2017,04,17,08,10,11.10
2017,04,17,08,11,11.10
2017,04,17,08,12,11.20
2017,04,17,08,13,11.20
2017,04,17,08,14,11.20
2017,04,17,08,15,11.20
2017,04,17,08,16,11.20
2017,04,17,08,17,11.20
2017,04,17,08,18,11.20
2017,04,17,08,19,11.20
2017,04,17,08,20,11.20
2017,04,17,08,21,11.20
2017,04,17,08,22,11.20
2017,04,17,08,23,11.20
2017,04,17,08,24,11.20
2017,04,17,08,25,11.20
2017,04,17,08,26,11.20
2017,04,17,08,27,11.20
2017,04,17,08,28,11.30
2017,04,17,08,29,11.30
2017,04,17,08,30,11.40
2017,04,17,08,31,11.50
2017,04,17,08,32,11.60
2017,04,17,08,33,11.70
2017,04,17,08,34,11.80
2017,04,17,08,35,11.80
2017,04,17,08,36,11.80
2017,04,17,08,37,11.90
2017,04,17,08,38,11.90
2017,04,17,08,39,12.00
2017,04,17,08,40,12.00
2017,04,17,08,41,12.10
2017,04,17,08,42,12.20
2017,04,17,08,43,12.30
2017,04,17,08,44,12.40
2017,04,17,08,45,12.50
2017,04,17,08,46,12.50
2017,04,17,08,47,12.70
2017,04,17,08,48,12.80
2017,04,17,08,49,12.80
2017,04,17,08,50,12.90
2017,04,17,08,51,12.90
2017,04,17,08,52,12.90
2017,04,17,08,53,12.90
2017,04,17,08,54,13.00
2017,04,17,08,55,13.00
2017,04,17,08,56,13.00
2017,04,17,08,57,13.00
2017,04,17,08,58,12.90
2017,04,17,08,59,12.80
2017,04,17,09,00,12.80
2017,04,17,09,01,12.80
2017,04,17,09,02,12.70
2017,04,17,09,03,12.60
2017,04,17,09,04,12.60
2017,04,17,09,05,12.50
2017,04,17,09,06,12.50
2017,04,17,09,07,12.40
2017,04,17,09,08,12.40
2017,04,17,09,09,12.40
2017,04,17,09,10,12.30
2017,04,17,09,11,12.30
2017,04,17,09,12,12.20
2017,04,17,09,13,12.20
2017,04,17,09,14,12.10
2017,04,17,09,15,12.10
2017,04,17,09,16,12.10
2017,04,17,09,17,12.10
2017,04,17,09,18,12.10
2017,04,17,09,19,12.10
2017,04,17,09,20,12.10
2017,04,17,09,21,12.20
2017,04,17,09,22,12.20
2017,04,17,09,23,12.20
2017,04,17,09,24,12.20
2017,04,17,09,25,12.30
2017,04,17,09,26,12.30
2017,04,17,09,27,12.30
2017,04,17,09,28,12.30
2017,04,17,09,29,12.30
2017,04,17,09,30,12.30
2017,04,17,09,31,12.30
2017,04,17,09,32,12.30
2017,04,17,09,33,12.30
2017,04,17,09,34,12.30
2017,04,17,09,35,12.20
2017,04,17,09,36,12.20
2017,04,17,09,37,12.10
2017,04,17,09,38,12.10
2017,04,17,09,39,12.00
2017,04,17,09,40,12.00
2017,04,17,09,41,11.80
2017,04,17,09,42,11.80
2017,04,17,09,43,11.70
2017,04,17,09,44,11.70
2017,04,17,09,45,11.70
2017,04,17,09,46,11.70
2017,04,17,09,47,11.70
2017,04,17,09,48,11.70
2017,04,17,09,49,11.60
2017,04,17,09,50,11.60
2017,04,17,09,51,11.60
2017,04,17,09,52,11.50
2017,04,17,09,53,11.50
2017,04,17,09,54,11.50
2017,04,17,09,55,11.50
2017,04,17,09,56,11.50
2017,04,17,09,57,11.50
2017,04,17,09,58,11.60
2017,04,17,09,59,11.60
2017,04,17,10,00,11.60
2017,04,17,10,01,11.60
2017,04,17,10,02,11.70
2017,04,17,10,03,11.70
2017,04,17,10,04,11.70
2017,04,17,10,05,11.70
2017,04,17,10,06,11.70
2017,04,17,10,07,11.70
2017,04,17,10,08,11.80
2017,04,17,10,09,11.80
2017,04,17,10,10,11.80
2017,04,17,10,11,11.80
2017,04,17,10,12,11.90
2017,04,17,10,13,11.90
2017,04,17,10,14,11.90
2017,04,17,10,15,12.00
2017,04,17,10,16,12.00
2017,04,17,10,17,12.00
2017,04,17,10,18,12.10
2017,04,17,10,19,12.10
2017,04,17,10,20,12.10
2017,04,17,10,21,12.10
2017,04,17,10,22,12.10
2017,04,17,10,23,12.10
2017,04,17,10,24,12.20
2017,04,17,10,25,12.20
2017,04,17,10,26,12.10
2017,04,17,10,27,12.10
2017,04,17,10,28,12.00
2017,04,17,10,29,12.00
2017,04,17,10,30,12.00
2017,04,17,10,31,12.00
2017,04,17,10,32,12.00
2017,04,17,10,33,12.10
2017,04,17,10,34,12.10
2017,04,17,10,35,12.20
2017,04,17,10,36,12.20
2017,04,17,10,37,12.20
2017,04,17,10,38,12.10
2017,04,17,10,39,12.10
2017,04,17,10,40,12.00
2017,04,17,10,41,12.00
2017,04,17,10,42,11.90
2017,04,17,10,43,11.90
2017,04,17,10,44,11.90
2017,04,17,10,45,11.90
2017,04,17,10,46,11.90
2017,04,17,10,47,11.80
2017,04,17,10,48,11.80
2017,04,17,10,49,11.80
2017,04,17,10,50,11.80
2017,04,17,10,51,11.80
2017,04,17,10,52,11.90
2017,04,17,10,53,11.90
2017,04,17,10,54,11.90
2017,04,17,10,55,12.00
2017,04,17,10,56,12.10
2017,04,17,10,57,12.10
2017,04,17,10,58,12.20
2017,04,17,10,59,12.30
2017,04,17,11,00,12.40
2017,04,17,11,01,12.40
2017,04,17,11,02,12.40
2017,04,17,11,03,12.40
2017,04,17,11,04,12.40
2017,04,17,11,05,12.30
2017,04,17,11,06,12.30
2017,04,17,11,07,12.30
2017,04,17,11,08,12.30
2017,04,17,11,09,12.30
2017,04,17,11,10,12.30
2017,04,17,11,11,12.30
2017,04,17,11,12,12.30
2017,04,17,11,13,12.30
2017,04,17,11,14,12.30
2017,04,17,11,15,12.40
2017,04,17,11,16,12.50
2017,04,17,11,17,12.50
2017,04,17,11,18,12.60
2017,04,17,11,19,12.60
2017,04,17,11,20,12.60
2017,04,17,11,21,12.60
2017,04,17,11,22,12.60
2017,04,17,11,23,12.60
2017,04,17,11,24,12.50
2017,04,17,11,25,12.40
2017,04,17,11,26,12.40
2017,04,17,11,27,12.40
2017,04,17,11,28,12.40
2017,04,17,11,29,12.50
2017,04,17,11,30,12.50
2017,04,17,11,31,12.50
2017,04,17,11,32,12.60
2017,04,17,11,33,12.60
2017,04,17,11,34,12.60
2017,04,17,11,35,12.70
2017,04,17,11,36,12.70
2017,04,17,11,37,12.80
2017,04,17,11,38,12.80
2017,04,17,11,39,12.90
2017,04,17,11,40,13.00
2017,04,17,11,41,12.90
2017,04,17,11,42,13.00
2017,04,17,11,43,12.90
2017,04,17,11,44,13.00
2017,04,17,11,45,13.00
2017,04,17,11,46,13.10
2017,04,17,11,47,13.10
2017,04,17,11,48,13.10
2017,04,17,11,49,13.10
2017,04,17,11,50,13.10
2017,04,17,11,51,13.00
2017,04,17,11,52,13.00
2017,04,17,11,53,12.90
2017,04,17,11,54,12.90
2017,04,17,11,55,12.90
2017,04,17,11,56,12.80
2017,04,17,11,57,12.90
2017,04,17,11,58,12.90
2017,04,17,11,59,12.90
2017,04,17,12,00,12.90
2017,04,17,12,01,12.90
2017,04,17,12,02,12.90
2017,04,17,12,03,12.90
2017,04,17,12,04,12.90
2017,04,17,12,05,12.90
2017,04,17,12,06,12.90
2017,04,17,12,07,12.90
2017,04,17,12,08,12.90
2017,04,17,12,09,12.90
2017,04,17,12,10,12.90
2017,04,17,12,11,12.90
2017,04,17,12,12,12.90
2017,04,17,12,13,13.00
2017,04,17,12,14,13.00
2017,04,17,12,15,13.00
2017,04,17,12,16,12.90
2017,04,17,12,17,12.90
2017,04,17,12,18,12.90
2017,04,17,12,19,12.90
2017,04,17,12,20,12.80
2017,04,17,12,21,12.80
2017,04,17,12,22,12.80
2017,04,17,12,23,12.80
2017,04,17,12,24,12.80
2017,04,17,12,25,12.80
2017,04,17,12,26,12.80
2017,04,17,12,27,12.80
2017,04,17,12,28,12.80
2017,04,17,12,29,12.80
2017,04,17,12,30,12.80
2017,04,17,12,31,12.70
2017,04,17,12,32,12.70
2017,04,17,12,33,12.80
2017,04,17,12,34,12.80
2017,04,17,12,35,12.80
2017,04,17,12,36,12.90
2017,04,17,12,37,13.00
2017,04,17,12,38,13.10
2017,04,17,12,39,13.10
2017,04,17,12,40,13.20
2017,04,17,12,41,13.30
2017,04,17,12,42,13.40
2017,04,17,12,43,13.50
2017,04,17,12,44,13.60
2017,04,17,12,45,13.60
2017,04,17,12,46,13.50
2017,04,17,12,47,13.50
2017,04,17,12,48,13.50
2017,04,17,12,49,13.50
2017,04,17,12,50,13.60
2017,04,17,12,51,13.60
2017,04,17,12,52,13.70
2017,04,17,12,53,13.70
2017,04,17,12,54,13.70
2017,04,17,12,55,13.70
2017,04,17,12,56,13.70
2017,04,17,12,57,13.70
2017,04,17,12,58,13.70
2017,04,17,12,59,13.60
2017,04,17,13,00,13.70
2017,04,17,13,01,13.70
2017,04,17,13,02,13.70
2017,04,17,13,03,13.70
2017,04,17,13,04,13.70
2017,04,17,13,05,13.80
2017,04,17,13,06,13.80
2017,04,17,13,07,13.70
2017,04,17,13,08,13.70
2017,04,17,13,09,13.70
2017,04,17,13,10,13.70
2017,04,17,13,11,13.70
2017,04,17,13,12,13.60
2017,04,17,13,13,13.60
2017,04,17,13,14,13.50
2017,04,17,13,15,13.50
2017,04,17,13,16,13.50
2017,04,17,13,17,13.50
2017,04,17,13,18,13.50
2017,04,17,13,19,13.50
2017,04,17,13,20,13.50
2017,04,17,13,21,13.50
2017,04,17,13,22,13.50
2017,04,17,13,23,13.50
2017,04,17,13,24,13.60
2017,04,17,13,25,13.60
2017,04,17,13,26,13.60
2017,04,17,13,27,13.70
2017,04,17,13,28,13.70
2017,04,17,13,29,13.80
2017,04,17,13,30,13.80
2017,04,17,13,31,13.80
2017,04,17,13,32,13.80
2017,04,17,13,33,13.80
2017,04,17,13,34,13.70
2017,04,17,13,35,13.70
2017,04,17,13,36,13.70
2017,04,17,13,37,13.70
2017,04,17,13,38,13.70
2017,04,17,13,39,13.70
2017,04,17,13,40,13.70
2017,04,17,13,41,13.70
2017,04,17,13,42,13.70
2017,04,17,13,43,13.70
2017,04,17,13,44,13.70
2017,04,17,13,45,13.70
2017,04,17,13,46,13.70
2017,04,17,13,47,13.70
2017,04,17,13,48,13.70
2017,04,17,13,49,13.70
2017,04,17,13,50,13.70
2017,04,17,13,51,13.70
2017,04,17,13,52,13.70
2017,04,17,13,53,13.70
2017,04,17,13,54,13.70
2017,04,17,13,55,13.70
2017,04,17,13,56,13.70
2017,04,17,13,57,13.70
2017,04,17,13,58,13.70
2017,04,17,13,59,13.80
2017,04,17,14,00,13.80
2017,04,17,14,01,13.80
2017,04,17,14,02,13.90
2017,04,17,14,03,13.90
2017,04,17,14,04,14.00
2017,04,17,14,05,14.00
2017,04,17,14,06,14.00
2017,04,17,14,07,14.00
2017,04,17,14,08,14.00
2017,04,17,14,09,14.10
2017,04,17,14,10,14.10
2017,04,17,14,11,14.10
2017,04,17,14,12,14.20
2017,04,17,14,13,14.20
2017,04,17,14,14,14.10
2017,04,17,14,15,14.20
2017,04,17,14,16,14.20
2017,04,17,14,17,14.20
2017,04,17,14,18,14.30
2017,04,17,14,19,14.30
2017,04,17,14,20,14.40
2017,04,17,14,21,14.40
2017,04,17,14,22,14.40
2017,04,17,14,23,14.40
2017,04,17,14,24,14.40
2017,04,17,14,25,14.40
2017,04,17,14,26,14.40
2017,04,17,14,27,14.40
2017,04,17,14,28,14.40
2017,04,17,14,29,14.40
2017,04,17,14,30,14.40
2017,04,17,14,31,14.40
2017,04,17,14,32,14.50
2017,04,17,14,33,14.50
2017,04,17,14,34,14.50
2017,04,17,14,35,14.60
2017,04,17,14,36,14.60
2017,04,17,14,37,14.60
2017,04,17,14,38,14.70
2017,04,17,14,39,14.70
2017,04,17,14,40,14.70
2017,04,17,14,41,14.70
2017,04,17,14,42,14.70
2017,04,17,14,43,14.60
2017,04,17,14,44,14.60
2017,04,17,14,45,14.60
2017,04,17,14,46,14.50
2017,04,17,14,47,14.40
2017,04,17,14,48,14.30
2017,04,17,14,49,14.00
2017,04,17,14,50,13.80
2017,04,17,14,51,13.60
2017,04,17,14,52,13.40
2017,04,17,14,53,13.30
2017,04,17,14,54,13.20
2017,04,17,14,55,13.10
2017,04,17,14,56,13.00
2017,04,17,14,57,12.90
2017,04,17,14,58,12.90
2017,04,17,14,59,12.80
2017,04,17,15,00,12.70
2017,04,17,15,01,12.70
2017,04,17,15,02,12.60
2017,04,17,15,03,12.60
2017,04,17,15,04,12.60
2017,04,17,15,05,12.50
2017,04,17,15,06,12.50
2017,04,17,15,07,12.50
2017,04,17,15,08,12.50
2017,04,17,15,09,12.50
2017,04,17,15,10,12.50
2017,04,17,15,11,12.50
2017,04,17,15,12,12.50
2017,04,17,15,13,12.50
2017,04,17,15,14,12.50
2017,04,17,15,15,12.50
2017,04,17,15,16,12.50
2017,04,17,15,17,12.50
2017,04,17,15,18,12.50
2017,04,17,15,19,12.60
2017,04,17,15,20,12.60
2017,04,17,15,21,12.60
2017,04,17,15,22,12.60
2017,04,17,15,23,12.60
2017,04,17,15,24,12.70
2017,04,17,15,25,12.70
2017,04,17,15,26,12.70
2017,04,17,15,27,12.70
2017,04,17,15,28,12.80
2017,04,17,15,29,12.80
2017,04,17,15,30,12.80
2017,04,17,15,31,12.80
2017,04,17,15,32,12.80
2017,04,17,15,33,12.80
2017,04,17,15,34,12.80
2017,04,17,15,35,12.80
2017,04,17,15,36,12.90
2017,04,17,15,37,12.90
2017,04,17,15,38,12.90
2017,04,17,15,39,12.90
2017,04,17,15,40,12.90
2017,04,17,15,41,12.90
2017,04,17,15,42,12.90
2017,04,17,15,43,12.90
2017,04,17,15,44,12.90
2017,04,17,15,45,12.90
2017,04,17,15,46,12.90
2017,04,17,15,47,13.00
2017,04,17,15,48,13.00
2017,04,17,15,49,13.00
2017,04,17,15,50,13.00
2017,04,17,15,51,13.10
2017,04,17,15,52,13.00
2017,04,17,15,53,13.00
2017,04,17,15,54,13.00
2017,04,17,15,55,13.00
2017,04,17,15,56,13.00
2017,04,17,15,57,13.00
2017,04,17,15,58,13.00
2017,04,17,15,59,13.00
2017,04,17,16,00,13.00
2017,04,17,16,01,13.00
2017,04,17,16,02,13.00
2017,04,17,16,03,13.00
2017,04,17,16,04,13.00
2017,04,17,16,05,13.00
